Temp_Advection
nan nan nan nan nan nan nan nan nan nan nan nan nan nan nan nan nan nan nan nan nan nan nan nan nan nan nan nan nan nan nan nan nan nan nan nan nan nan nan nan nan nan nan nan nan nan nan nan nan nan nan nan nan nan nan nan nan nan nan nan nan nan nan
nan 1 0 0 0 1 1 1 1 1 1 1 1 1 1 1 1 1 0 0 0 0 0 -0 -0 0 -0 -0 -0 -1 -0 1 1 1 0 1 1 1 0 0 -0 -0 -0 -1 -0 0 -0 -0 -0 -0 -0 -0 -0 -0 -0 -0 -0 -1 -1 -1 -1 -1 nan
nan 1 0 0 0 1 1 1 1 1 1 1 1 1 1 1 1 1 1 0 0 0 1 0 -0 -0 -0 -0 -0 -1 -0 1 1 1 0 0 1 1 0 0 0 -0 -0 -0 -0 0 -0 -0 -0 -0 -0 0 -0 -0 -0 -0 -0 -1 -1 -1 -1 -1 nan
nan 1 0 0 0 1 1 0 1 1 1 1 1 1 1 1 1 1 1 0 0 1 1 0 0 0 0 -0 -1 -1 -1 0 1 1 1 0 1 1 1 0 0 -0 -0 -0 -0 -0 0 0 -0 -0 -0 -0 0 0 -0 -0 -0 -0 -1 -1 -1 -1 nan
nan 1 1 1 1 0 0 0 1 1 1 1 1 1 1 1 1 0 0 0 1 1 1 0 0 0 0 0 -0 -1 -1 0 1 1 0 0 1 1 1 0 0 0 0 -0 -0 -0 0 0 0 -0 -0 -0 -0 0 -0 -0 -0 -0 -1 -1 -1 -1 nan
nan 1 1 1 0 0 0 0 1 1 1 1 1 1 1 1 0 0 0 1 1 1 1 0 -0 0 0 0 -0 -1 -0 1 1 0 -0 0 1 1 0 0 0 0 0 -0 -0 -0 -0 0 0 -0 -0 -0 -0 -0 -0 -0 -0 -0 -0 -1 -1 -1 nan
nan 1 1 1 1 0 0 0 1 1 1 1 1 1 1 1 1 0 1 1 1 1 1 0 0 0 -0 -0 -0 -0 -0 0 1 0 -1 -0 1 1 -0 -0 -0 -0 0 -0 -0 0 -0 0 -0 -0 -0 -0 -0 -0 -0 -0 -0 -0 -0 -0 -1 -1 nan
nan 1 1 1 1 1 1 1 1 1 1 1 1 1 1 1 1 0 0 1 2 1 0 -0 0 0 -0 -0 -0 -0 0 0 1 0 -1 -1 1 1 -0 -0 -0 -0 -0 0 -0 0 -0 -0 0 -0 -0 -0 -1 -1 -1 -0 -0 -1 -1 -0 -0 -1 nan
nan 1 1 1 1 1 1 1 1 1 1 0 1 1 1 1 1 1 1 1 1 1 0 -0 -0 -0 -0 0 0 0 1 1 1 1 0 0 1 1 -0 -1 -0 -0 -0 0 0 0 -0 -0 -0 -0 -0 -0 -1 -1 -1 -1 -1 -1 -1 -1 -1 -1 nan
nan 1 1 1 1 1 1 1 1 1 1 1 1 0 0 0 1 1 1 1 0 0 -0 -0 -0 -0 0 0 0 0 1 1 1 1 1 1 3 3 1 -1 -0 -0 0 1 0 -0 -0 -1 -0 -0 -0 -0 -0 -1 -1 -1 -1 -1 -1 -1 -1 -1 nan
nan 1 1 1 1 1 1 1 1 1 1 1 1 0 0 0 0 1 2 1 0 -0 -0 -0 0 0 0 0 0 -0 0 1 1 1 1 1 2 4 3 1 0 1 1 1 0 -1 -0 -0 -1 -0 -0 -0 -0 -1 -1 -1 -1 -1 -1 -0 -1 -1 nan
nan 1 1 1 1 1 1 1 1 1 1 1 1 1 0 -0 0 2 2 1 -0 -1 -0 -0 0 0 0 0 0 -0 0 0 1 0 0 -0 1 3 3 3 3 3 2 1 1 -0 -0 -0 -1 -0 -0 -1 -1 -1 -0 -1 -1 -1 -1 -1 -1 -1 nan
nan 1 1 1 1 1 1 1 1 1 1 1 1 1 0 -0 0 1 2 1 -0 -1 -0 0 0 0 0 0 0 0 -0 0 0 -0 -0 -0 0 1 2 2 4 5 4 3 1 0 0 0 -0 -0 -0 -1 -2 -1 -1 -1 -1 -1 -1 -1 -1 -1 nan
nan 1 1 1 1 1 1 0 1 1 1 0 1 1 0 0 -0 1 1 1 0 0 0 0 0 -0 0 0 0 0 0 -0 -1 -1 -1 -0 -0 0 0 0 1 3 4 4 2 0 0 1 1 0 0 -0 -1 -1 -1 -1 -1 -1 -1 -1 -1 -1 nan
nan 1 1 1 1 1 0 1 1 1 1 1 1 1 0 0 0 0 0 0 1 1 1 1 0 0 0 0 0 1 0 -0 -1 -1 -1 -1 -0 -0 -0 -0 0 1 3 3 2 1 0 0 0 0 0 0 -0 -1 -1 -1 -1 -1 -1 -1 -1 -1 nan
nan 1 1 1 1 0 0 1 1 1 1 1 1 0 0 -0 0 0 -0 -0 0 1 1 1 0 0 0 0 0 0 0 0 0 -1 -1 -1 -0 -0 -0 -0 1 1 2 3 3 2 1 0 -0 -0 -0 -1 -1 -1 -0 -0 -1 -0 -0 -1 -1 -1 nan
nan 1 1 1 1 0 0 1 1 1 1 1 1 0 -0 0 0 0 -0 -0 0 1 1 1 0 0 0 0 0 0 0 0 0 -0 -1 -1 -1 -0 -0 -0 0 1 2 3 4 3 2 1 1 1 -0 -1 -1 -1 0 0 -1 -1 -1 -1 -0 -0 nan
nan 1 0 1 1 0 1 1 1 1 1 1 1 0 -0 0 0 -0 -0 -0 0 1 1 1 0 0 0 0 0 0 0 0 0 -0 -1 -1 -1 -1 -0 -0 -0 -0 1 2 3 3 3 2 1 1 -0 -0 -1 -1 0 0 -1 -2 -1 -1 -1 -1 nan
nan 0 1 1 1 1 1 0 0 1 1 1 1 0 0 0 0 -0 -0 0 0 0 1 0 0 0 0 0 0 0 0 0 0 -1 -1 -1 -1 -1 -1 -1 -0 -0 -1 0 1 2 2 2 1 1 -0 -1 -0 -0 -0 -1 -2 -2 -1 -0 -1 -1 nan
nan 0 1 1 0 0 1 0 0 1 1 1 1 1 1 1 -0 -1 -0 0 0 0 0 0 0 0 0 0 0 0 0 0 0 -1 -1 -1 -1 -1 -1 -1 -0 0 -0 -0 -0 0 1 2 2 1 0 -1 -1 -1 -1 -1 -1 -2 -1 -0 -1 -0 nan
nan 1 2 1 0 0 1 1 1 1 0 1 1 1 1 0 -0 -1 -0 0 0 0 0 0 0 0 0 0 0 0 0 0 0 -0 -1 -1 -1 -0 -1 -1 -1 0 0 0 -0 -0 1 2 2 2 1 -0 -1 -1 -1 -1 -1 -2 -1 -0 -0 1 nan
nan 1 1 1 0 0 1 1 0 0 0 1 1 1 1 1 0 -1 -1 0 0 0 0 0 0 0 0 0 0 0 0 0 0 -0 -1 -1 -1 -0 -0 -0 -1 -0 -0 -0 -0 -0 1 1 1 1 1 0 -0 -0 -0 -1 -1 -2 -2 -1 -1 -1 nan
nan -0 0 1 1 0 0 0 0 0 1 1 1 0 1 1 1 -1 -1 0 1 0 0 0 0 0 0 0 0 0 0 0 0 -0 -0 -1 -1 -1 -0 -0 -1 -0 -0 -0 -0 0 0 -0 -0 0 1 0 0 0 -0 -1 -1 -1 -1 -1 -2 -2 nan
nan -1 -1 0 1 1 0 0 0 1 1 1 0 0 0 1 1 -0 -1 -0 1 0 0 0 0 0 0 0 0 0 0 0 0 0 -0 -0 -0 -1 -0 -0 -0 -0 -0 -0 -0 -0 -1 -1 -1 -0 -0 0 1 1 0 -0 -1 -1 -1 -1 -1 -1 nan
nan -1 -1 -0 1 0 0 0 0 1 1 1 1 0 0 1 1 -0 -1 -0 0 0 0 0 -0 -0 0 0 0 0 0 0 0 0 -0 -0 -0 -0 -0 -0 -0 -0 -0 -0 -1 -1 -1 -1 -1 -0 -0 1 2 2 1 0 0 -0 -0 -0 -0 -0 nan
nan -1 -1 -1 0 0 0 0 0 1 1 1 0 0 0 0 1 0 -0 -0 0 0 0 0 -0 -0 0 0 0 0 0 0 0 -0 -0 -0 -0 -0 -0 -0 -1 -1 -1 -1 -1 -1 -1 -1 0 1 1 2 2 1 1 1 1 1 0 0 0 -0 nan
nan -2 -3 -2 -0 -0 0 0 0 0 0 0 0 0 0 0 0 0 0 -0 0 0 0 0 0 0 0 0 0 0 0 0 -0 -0 -0 -0 -0 -0 -0 -1 -1 -1 -0 -1 -1 -1 0 1 1 1 1 1 1 1 1 1 1 1 0 0 0 -0 nan
nan -2 -3 -1 -0 -0 -0 0 -0 -0 0 0 0 0 0 0 1 1 0 -0 0 0 0 0 -0 0 0 0 0 0 0 0 0 -0 -0 -0 -0 -0 -0 -0 -0 0 0 -0 -0 0 1 1 1 1 1 1 1 0 0 1 1 1 0 0 0 0 nan
nan -1 -1 -1 -1 -1 -1 -0 -0 0 1 1 1 0 0 0 1 0 0 0 0 0 0 0 -0 0 0 0 0 0 0 0 0 0 0 -0 -0 -0 -0 -0 0 0 -0 -0 -0 1 1 1 0 0 0 0 -0 -0 0 0 1 1 1 1 1 1 nan
nan 0 -0 -1 -1 -1 -0 0 1 1 1 1 0 0 0 0 0 0 0 0 0 0 0 -0 -0 0 -0 0 0 0 0 0 0 0 0 -0 -0 -0 -0 0 0 -0 -0 -0 0 1 1 0 0 0 -0 -1 -1 -0 0 0 1 2 1 1 1 1 nan
nan 1 1 -1 -2 -1 1 1 1 1 0 0 0 0 0 0 0 0 0 0 0 0 -0 -0 -0 -0 -0 -0 0 0 -0 -0 0 0 0 -0 -0 -0 -0 0 0 -0 -0 0 0 1 0 0 -0 -0 -0 -1 -0 0 0 1 1 1 1 1 0 -0 nan
nan 2 1 -1 -1 -0 0 1 1 1 0 0 -0 0 0 0 0 0 0 0 0 0 -0 -0 -0 -0 -0 -0 0 -0 -0 -0 0 0 0 0 -0 -0 -0 -0 -0 -0 0 0 0 0 0 0 -0 -0 -0 -0 0 0 0 0 0 -0 0 0 -0 -1 nan
nan 2 0 -1 -1 0 0 0 0 1 1 0 -0 0 1 0 0 0 0 -0 0 0 -0 -0 -0 -0 -0 -0 -0 -0 -0 -0 0 1 0 -0 -0 -0 -0 -0 -0 0 1 0 0 1 1 0 0 0 0 0 0 -0 -0 -0 -0 0 0 0 -0 -0 nan
nan 1 -0 -1 -0 -0 -0 0 1 1 0 -0 -0 0 1 0 0 0 -0 -0 0 0 -0 0 -0 -0 -0 -0 -0 -0 -0 -0 0 0 0 -0 -0 -0 -0 0 0 0 0 0 0 1 1 0 1 0 0 0 0 -0 -0 -0 -0 0 -0 -1 -1 -0 nan
nan 0 -0 -0 -0 -0 -0 0 1 1 0 -0 -0 0 0 0 -0 -0 -0 -0 0 0 0 0 -0 -0 -0 -0 -0 -0 -0 -0 -0 0 0 -0 -0 0 0 -0 -0 0 0 0 0 0 0 0 1 0 0 0 0 -0 -0 -1 -1 -0 -0 -0 -0 -0 nan
nan nan nan nan nan nan nan nan nan nan nan nan nan nan nan nan nan nan nan nan nan nan nan nan nan nan nan nan nan nan nan nan nan nan nan nan nan nan nan nan nan nan nan nan nan nan nan nan nan nan nan nan nan nan nan nan nan nan nan nan nan nan nan
Wind_Speed
21 19 17 16 16 16 15 14 14 14 14 14 14 14 14 15 15 17 18 19 19 19 20 20 21 23 23 23 24 27 30 31 27 24 25 28 30 27 24 23 25 31 41 45 39 31 29 28 29 30 31 31 32 31 29 28 28 28 28 29 30 29 28
21 19 17 16 16 16 15 14 14 14 15 15 15 15 15 16 17 18 19 20 20 20 21 21 23 25 25 23 24 29 31 30 27 26 28 29 29 27 25 23 25 29 35 41 40 32 27 26 24 25 27 27 29 31 30 30 30 29 29 30 30 30 30
21 20 18 17 16 16 15 14 14 15 15 15 16 16 16 17 18 19 20 22 23 23 22 22 24 25 24 23 26 31 32 30 29 27 28 30 28 27 27 26 25 27 32 38 39 34 29 27 26 25 26 26 27 29 31 32 32 30 30 30 30 30 31
22 21 19 17 17 16 15 15 14 15 16 16 16 17 17 17 18 20 22 25 26 25 23 23 24 24 24 26 30 33 32 30 29 28 29 31 29 27 27 28 27 29 32 36 40 40 34 29 28 28 26 26 27 27 29 31 31 30 30 30 29 29 30
23 22 20 18 17 16 16 15 15 15 16 16 16 17 17 17 18 20 23 25 25 25 24 23 22 23 25 29 32 33 32 30 29 28 29 30 30 28 27 29 30 32 33 35 40 45 42 34 31 31 28 26 26 27 28 29 29 29 29 28 28 29 29
24 23 20 19 18 17 16 15 15 15 16 16 16 17 17 18 19 20 22 23 24 24 23 22 22 25 27 30 32 32 30 29 28 27 29 30 30 28 28 30 32 33 35 38 41 43 42 38 34 32 29 25 24 27 29 29 30 29 28 28 28 28 27
25 24 21 20 19 18 17 16 16 16 16 16 16 16 18 18 19 20 21 23 23 22 21 21 23 27 29 29 29 29 28 27 27 27 29 29 28 28 29 31 33 35 36 39 40 40 41 40 35 31 29 26 25 29 30 29 30 30 28 26 26 26 25
26 24 22 21 20 19 18 17 17 16 16 16 16 17 17 18 19 20 21 21 20 18 19 22 25 27 27 27 26 26 26 26 26 27 28 28 27 28 30 31 33 36 38 38 39 40 39 37 34 30 28 26 27 29 28 26 27 28 26 24 23 23 22
27 25 24 22 20 19 19 18 17 16 16 16 17 17 17 18 20 20 20 19 18 18 20 23 25 25 24 24 24 24 24 23 23 26 27 28 28 28 30 33 34 35 37 37 38 38 37 34 33 30 28 26 26 27 26 25 25 27 26 24 24 23 22
27 26 24 22 21 20 19 19 18 16 16 17 17 17 17 18 20 20 19 17 17 19 22 23 23 23 24 23 23 23 23 22 23 25 26 27 28 28 29 32 33 34 36 38 38 38 36 34 34 31 27 26 26 25 25 25 26 27 26 24 24 24 22
28 27 25 23 21 20 19 18 18 16 16 17 17 17 17 18 19 20 18 17 18 21 23 23 23 23 23 23 23 23 22 22 24 25 27 27 27 27 27 29 32 35 36 35 36 36 33 32 33 31 28 27 26 25 25 25 25 26 25 22 21 22 21
29 27 25 23 22 21 19 18 17 17 17 17 17 17 18 18 18 19 18 17 19 21 22 22 22 23 23 23 23 22 22 23 25 26 27 27 26 28 28 29 32 33 32 31 33 35 34 33 34 34 32 30 27 24 23 23 25 26 24 21 21 21 21
29 27 26 24 22 21 19 18 17 17 17 17 17 17 18 18 19 19 19 19 20 20 20 21 22 23 23 22 22 22 22 23 26 27 27 26 26 29 30 31 32 30 27 27 29 33 35 34 33 34 33 29 26 25 24 24 24 25 24 22 21 21 21
29 28 27 25 23 21 19 18 17 17 18 18 17 17 18 19 19 20 20 20 20 19 19 20 21 23 23 22 22 22 22 23 26 27 27 27 28 29 29 30 30 29 28 26 26 31 35 34 31 31 30 27 24 24 28 29 27 25 24 24 22 22 22
30 29 28 26 23 21 19 18 17 18 18 18 17 17 18 19 19 20 20 20 19 19 19 19 20 22 22 21 21 22 23 24 25 26 27 28 29 28 28 28 28 28 28 26 26 30 32 30 28 28 29 26 22 21 25 29 29 27 27 28 28 27 27
32 30 28 27 24 21 19 18 18 18 18 18 17 17 18 19 19 20 20 19 19 19 18 18 19 20 20 20 20 21 23 23 23 25 27 28 29 28 28 27 26 26 24 22 24 25 25 25 25 26 26 25 23 23 23 23 25 26 26 29 32 31 30
32 30 29 28 25 22 20 19 18 18 18 18 17 18 19 18 18 19 20 19 19 18 18 17 17 17 18 19 19 20 22 21 21 24 27 27 28 29 28 27 25 24 21 19 20 20 20 21 23 25 27 27 27 28 25 22 24 22 20 23 28 31 29
31 31 30 29 26 22 21 19 18 18 18 18 17 18 19 18 18 19 19 19 18 18 16 15 15 15 17 18 18 19 21 21 21 24 26 26 28 29 29 27 27 25 22 20 19 18 18 20 20 21 25 27 26 26 28 30 30 25 19 18 22 26 25
31 31 30 29 26 24 22 20 18 18 18 18 18 18 19 18 18 18 19 18 18 16 15 15 14 14 15 16 17 18 20 20 21 23 25 25 27 29 29 27 27 26 25 24 23 22 23 24 23 21 21 21 21 19 23 31 35 33 27 21 20 19 17
31 31 30 29 28 25 23 21 19 18 18 18 17 18 18 19 18 18 18 18 17 16 15 14 14 14 15 16 16 18 19 20 21 22 23 24 25 27 29 28 26 24 23 24 25 25 26 26 24 23 21 17 16 16 17 24 31 36 35 31 27 23 21
32 32 31 30 29 27 24 21 19 18 18 18 17 17 18 19 19 18 17 17 16 15 14 13 13 14 15 16 16 17 19 20 21 20 21 22 22 24 26 26 25 23 21 22 24 25 26 27 25 24 24 19 13 13 15 17 23 30 36 38 37 33 32
33 32 32 31 30 28 25 22 20 19 19 18 17 17 17 18 18 17 17 17 16 14 13 13 13 14 15 16 16 17 19 21 21 20 20 20 19 21 23 23 22 21 20 21 23 25 25 27 27 26 26 23 15 11 12 15 17 22 28 36 39 39 38
35 34 34 33 32 29 25 23 21 19 18 17 17 16 16 17 18 18 17 16 15 14 13 13 13 14 15 15 16 17 20 21 21 20 20 19 18 18 20 20 19 18 18 20 22 23 25 27 27 27 27 24 19 12 9 11 14 16 18 24 31 34 35
37 37 36 34 33 30 26 24 22 19 18 17 17 16 15 16 17 18 17 15 14 14 13 12 13 13 14 15 15 17 19 20 20 19 19 18 17 16 17 17 16 16 17 18 21 23 24 26 27 27 27 25 22 15 9 7 8 10 11 13 16 19 22
39 38 37 35 34 30 27 25 22 20 18 17 17 16 15 15 17 18 17 15 13 13 12 11 11 12 13 13 14 16 18 19 17 16 16 16 14 14 15 15 14 15 16 17 20 22 24 25 26 27 27 25 22 16 10 6 4 4 3 3 4 6 9
39 39 38 36 35 31 28 26 23 20 19 18 17 16 15 15 16 17 16 14 13 12 11 10 10 11 11 12 13 15 17 16 14 13 13 13 12 12 13 13 14 15 16 18 20 22 23 24 25 26 27 25 24 21 17 12 8 5 3 2 2 3 5
40 41 40 38 37 32 28 26 25 22 19 19 17 16 15 15 15 15 15 13 11 10 9 8 8 9 9 11 12 14 14 12 10 10 11 11 11 11 12 13 14 15 17 18 20 21 22 23 24 25 26 27 27 26 25 22 17 13 10 6 4 5 6
40 42 42 40 38 33 29 28 27 23 19 18 17 16 15 14 13 14 14 12 10 9 8 6 6 7 8 9 10 10 10 9 9 10 10 11 11 11 11 12 13 13 15 17 19 20 21 22 24 25 27 28 29 29 29 28 25 22 20 16 12 10 9
37 40 41 40 38 34 30 28 25 21 18 16 15 14 14 12 11 13 13 11 9 8 6 5 5 5 6 7 7 7 7 7 8 9 10 10 10 11 12 13 13 14 16 18 20 20 21 23 24 26 27 28 29 30 30 30 29 29 28 26 23 20 18
34 36 38 38 35 32 29 25 20 17 16 15 14 14 13 11 11 12 12 10 8 6 5 4 3 2 4 4 5 6 7 8 10 11 12 12 13 13 15 16 16 17 18 20 21 21 22 23 25 26 28 29 30 30 30 29 29 30 30 30 29 27 25
31 33 35 35 33 30 27 24 20 18 17 16 15 14 13 11 11 12 11 10 8 6 5 4 1 2 3 3 5 7 8 10 13 15 15 16 16 17 17 18 18 19 20 21 22 22 23 24 26 27 29 30 30 30 29 28 28 29 30 31 31 31 30
28 31 34 35 32 29 26 23 22 20 19 17 16 15 13 12 12 12 11 10 8 7 6 5 3 4 4 4 6 8 10 12 15 17 18 19 19 19 20 21 21 21 22 23 24 24 24 25 27 28 29 29 30 30 30 29 29 29 29 31 32 32 32
25 28 31 33 33 31 27 23 22 21 20 18 17 15 13 13 13 12 12 11 9 9 8 7 6 6 6 6 8 9 11 14 16 18 20 20 21 22 22 22 22 22 23 24 25 25 26 28 28 29 30 30 31 31 31 31 31 30 30 31 32 32 32
23 25 28 30 31 31 28 25 23 21 20 19 18 16 15 15 15 14 13 12 11 11 10 9 9 9 8 8 9 9 11 14 16 18 19 20 21 21 22 22 23 23 25 26 26 26 28 29 30 31 32 33 33 34 34 33 33 32 31 31 31 31 31
23 25 27 28 28 28 27 26 24 22 20 19 18 17 17 17 16 16 14 13 13 13 12 11 11 11 10 9 9 10 11 13 15 17 18 19 19 20 21 22 23 24 25 26 27 27 28 30 31 32 34 34 35 36 36 36 36 34 32 31 31 30 30
24 25 26 27 27 27 26 25 24 22 21 21 20 19 18 17 17 16 15 15 15 14 14 13 13 13 12 10 10 9 9 11 13 14 16 17 17 18 20 22 22 23 24 25 26 27 28 30 31 32 33 34 35 36 36 37 37 36 35 33 31 30 30
Wind_Direction
251 255 262 270 276 283 285 285 286 284 280 277 273 269 261 253 249 250 256 261 263 268 273 278 282 282 284 289 293 296 300 303 301 294 294 303 308 307 299 290 284 280 285 295 301 298 297 302 303 303 305 305 304 305 304 300 298 295 292 290 290 290 286
249 254 259 267 274 278 281 282 281 279 276 274 272 268 262 256 252 254 259 263 265 269 274 282 285 285 288 294 295 296 302 304 299 293 297 307 311 306 300 294 288 284 285 293 300 300 296 299 300 298 302 303 301 302 303 300 298 295 292 290 288 287 285
248 253 257 264 270 274 277 278 279 277 273 271 269 266 264 260 257 258 261 263 266 271 278 286 289 289 291 293 294 299 304 304 298 295 300 309 311 305 301 300 294 288 288 292 296 298 296 296 296 294 296 298 296 297 298 297 297 296 293 291 289 288 286
247 251 255 261 267 271 274 275 277 277 273 270 269 267 266 264 263 262 263 266 271 275 283 291 292 291 291 290 295 301 304 303 300 300 304 311 314 310 306 305 299 293 293 292 293 296 296 293 293 293 293 295 295 293 293 294 295 295 294 293 292 290 288
246 250 255 260 265 268 271 274 275 274 273 271 269 268 268 267 267 266 268 272 276 278 284 292 293 291 289 291 296 301 303 304 303 303 310 315 318 318 313 309 305 299 295 290 291 296 297 293 291 291 290 292 293 292 291 290 290 291 291 291 291 289 289
245 249 254 258 262 266 268 271 271 271 271 270 269 269 269 269 270 272 274 277 278 279 285 291 291 288 288 292 297 300 303 305 304 308 316 321 322 320 316 311 308 303 298 293 292 295 296 294 292 289 288 288 289 288 289 289 289 289 288 287 287 287 289
244 248 252 256 260 264 266 267 268 267 267 269 269 269 269 271 273 276 278 279 279 281 287 290 287 286 291 296 299 300 303 306 309 315 320 321 322 318 313 311 309 306 302 296 294 294 293 292 290 287 284 286 288 286 283 284 286 287 287 287 286 285 288
244 247 250 253 257 261 264 265 265 264 264 266 268 268 270 273 275 278 279 281 285 290 291 288 286 288 295 300 300 301 305 308 310 313 315 319 322 317 313 313 310 308 305 298 294 294 293 291 288 284 283 286 288 285 280 279 281 283 286 288 287 286 288
243 245 248 251 255 258 261 263 263 263 262 263 265 265 269 273 275 279 282 284 290 293 288 285 288 294 299 300 301 302 303 302 303 307 313 319 321 317 313 312 310 307 303 299 296 294 294 291 287 285 285 285 285 283 282 280 278 279 282 285 284 284 284
242 245 247 250 253 256 259 262 262 261 260 261 263 264 267 271 275 279 282 287 291 290 289 290 293 298 300 300 301 301 299 302 306 312 316 318 319 318 312 308 307 304 300 298 296 295 294 292 288 286 285 283 282 282 282 280 278 277 278 280 281 282 284
242 245 247 250 253 255 258 261 261 259 256 258 261 263 266 270 275 279 282 286 287 286 290 293 294 296 298 299 300 300 301 307 312 315 316 316 321 324 315 305 303 303 302 301 298 297 296 293 291 290 288 284 282 282 281 278 277 276 276 278 282 287 289
242 244 247 249 252 254 258 260 260 257 254 256 258 261 266 271 275 279 280 279 280 283 288 292 294 295 297 300 302 302 304 309 312 314 313 314 323 329 321 310 307 307 307 304 299 297 295 292 291 291 289 286 282 279 278 275 273 275 277 279 280 280 282
243 245 247 249 251 253 257 259 260 256 253 254 257 258 263 270 274 277 279 279 281 286 290 292 295 297 299 302 304 305 309 312 312 312 314 319 329 331 325 319 316 313 309 305 300 298 298 296 294 292 290 288 282 274 272 273 274 274 275 273 271 272 277
245 246 247 248 250 252 255 259 260 256 252 253 255 257 261 267 273 276 280 283 288 291 292 293 296 297 300 304 306 310 314 313 312 315 321 327 330 330 328 326 323 320 317 315 308 301 300 300 298 294 293 292 286 274 264 264 269 272 271 270 270 269 269
246 247 248 248 248 250 255 259 260 256 253 252 253 256 260 265 271 276 281 288 292 293 293 295 296 297 300 305 310 313 315 314 316 321 324 327 328 329 331 331 328 327 326 321 310 302 301 304 304 302 299 296 294 286 270 261 261 266 269 271 272 270 263
245 246 247 247 246 249 254 257 259 256 254 253 252 254 259 264 271 277 282 289 294 294 295 296 296 297 301 307 312 312 313 316 321 321 321 325 328 330 332 333 333 334 332 321 307 302 302 302 299 296 293 288 282 281 278 270 264 265 270 271 270 269 265
246 245 247 247 246 250 253 255 257 256 254 253 252 253 258 264 271 278 283 290 294 295 298 297 295 297 302 307 311 310 313 321 323 319 320 326 329 330 332 333 336 339 338 327 314 305 301 300 296 287 282 276 269 260 255 259 261 259 267 271 264 263 265
247 246 247 248 248 251 254 254 254 255 255 254 252 254 259 263 270 277 284 290 294 296 299 297 294 298 302 306 312 313 317 324 323 320 323 329 330 330 331 333 336 340 342 340 333 322 319 322 319 304 288 282 277 261 245 246 251 247 250 264 261 260 263
247 246 247 248 249 252 254 253 254 255 255 254 252 254 259 263 268 276 283 290 294 296 297 296 296 300 303 307 314 318 320 324 323 322 327 331 329 329 331 334 337 338 342 348 350 346 344 344 341 331 314 297 288 273 248 242 244 241 240 249 256 257 261
247 247 247 246 247 252 254 253 254 255 255 255 252 253 258 262 266 275 284 290 294 294 294 294 296 301 305 310 315 319 321 324 325 326 328 330 329 329 330 333 334 336 343 351 357 358 355 353 351 348 342 323 295 279 259 243 240 239 238 240 246 248 251
245 245 244 243 246 251 253 252 254 255 255 255 252 251 257 261 266 275 285 290 293 292 291 293 297 301 305 310 315 320 323 326 327 328 328 330 330 328 326 326 329 336 346 355 1 3 1 359 358 357 356 348 320 288 271 253 241 238 236 236 240 244 248
243 242 241 241 244 248 251 251 252 255 255 254 251 250 255 261 267 275 284 290 294 293 290 293 297 301 304 309 315 322 326 326 326 328 329 329 328 324 321 322 327 335 348 359 5 8 6 5 5 4 3 360 347 315 285 268 254 244 238 236 237 240 245
240 239 239 239 241 244 248 249 250 253 253 251 248 249 254 261 267 273 282 291 295 292 289 291 295 299 303 309 316 324 326 325 326 328 328 327 325 322 319 321 327 337 351 2 9 13 13 13 13 12 10 7 3 350 317 286 269 260 252 243 239 241 245
238 236 235 237 239 240 243 247 249 251 250 247 246 248 252 259 264 269 280 291 293 288 287 290 294 299 304 310 319 325 323 322 324 326 326 326 326 324 320 322 331 344 356 6 14 20 22 21 21 19 16 14 14 11 356 325 293 276 267 258 248 244 246
239 236 235 236 238 238 241 244 245 247 247 245 244 245 249 256 261 266 276 288 289 286 286 290 295 300 306 312 320 323 320 320 324 327 328 330 331 331 328 330 342 356 6 15 22 26 29 29 29 28 26 25 30 34 32 17 343 302 282 272 251 236 235
239 237 235 237 238 238 240 242 242 241 242 243 243 242 245 252 258 263 272 280 284 283 282 287 294 301 308 316 322 322 320 323 330 333 333 337 343 345 342 346 358 8 17 25 30 33 35 36 36 35 35 37 43 50 55 55 53 62 81 99 147 194 214
239 237 236 237 238 237 238 240 240 238 238 239 241 241 242 248 256 262 268 273 277 277 277 284 295 303 313 323 327 324 324 329 336 338 340 347 356 360 1 5 13 20 26 32 36 38 40 42 43 43 43 45 48 53 59 62 66 75 86 100 142 174 182
243 240 239 238 238 236 237 238 238 237 238 239 240 241 242 246 252 256 261 265 267 268 270 279 293 307 324 332 330 328 330 336 341 346 354 2 8 11 17 22 25 29 35 39 41 42 44 46 48 48 48 48 49 52 57 61 66 73 78 81 93 111 122
251 247 244 241 239 238 238 240 240 240 241 240 238 239 241 243 245 248 251 255 257 257 260 267 285 317 339 341 337 340 346 352 0 7 14 21 24 24 28 32 33 36 40 42 42 42 44 46 49 51 51 52 52 52 53 55 59 64 68 70 73 79 82
257 253 248 245 244 244 243 245 246 244 240 236 234 236 238 239 241 243 244 246 246 241 238 247 272 340 0 355 360 8 11 19 29 33 35 38 39 39 40 41 42 43 45 46 45 44 44 45 47 50 52 53 54 54 53 52 53 57 60 62 63 65 66
256 252 248 245 246 246 244 242 240 237 234 230 229 232 235 235 237 240 238 235 232 221 214 218 209 67 47 34 37 36 38 45 49 49 49 49 48 48 50 50 51 51 51 51 51 49 47 47 48 49 51 53 54 55 55 54 53 54 56 58 59 58 58
253 248 244 242 241 241 240 237 234 231 230 227 227 229 230 230 232 234 231 226 218 206 200 194 155 110 90 74 66 61 59 60 60 58 57 56 55 55 56 55 55 55 55 55 54 52 51 50 50 49 50 51 53 54 54 54 52 52 53 55 57 56 56
252 243 240 239 238 236 235 233 231 228 225 225 227 226 223 224 228 228 224 218 208 197 190 177 147 124 111 99 89 79 72 69 66 64 61 60 59 59 59 59 59 59 59 58 56 54 54 53 52 52 52 52 52 53 53 53 52 51 52 53 54 55 54
246 235 230 232 235 234 232 231 228 224 222 224 226 223 219 220 222 221 216 208 198 190 183 168 148 134 124 114 104 91 81 75 70 68 66 64 63 63 63 64 64 63 62 61 59 58 56 55 53 53 52 52 52 52 53 53 52 51 51 51 52 52 52
239 226 219 220 225 228 229 229 226 221 220 223 224 221 218 218 219 217 211 201 191 185 178 166 152 140 133 126 114 99 88 79 74 71 70 68 67 67 68 66 65 64 63 62 61 60 58 57 55 54 53 52 52 52 52 52 52 52 51 51 50 50 50
238 228 216 212 217 222 223 224 224 217 214 219 224 223 221 220 219 216 209 199 191 183 176 168 157 146 142 135 122 106 91 80 75 72 71 70 69 70 70 67 64 64 63 62 61 60 58 56 55 54 53 52 52 52 52 53 52 52 52 52 51 50 49
Height
1382 1382 1382 1381 1381 1380 1378 1377 1376 1375 1375 1375 1375 1375 1376 1376 1377 1377 1376 1376 1375 1374 1374 1373 1371 1369 1368 1367 1365 1363 1361 1359 1357 1355 1353 1351 1347 1345 1343 1340 1337 1330 1318 1312 1313 1311 1306 1305 1302 1298 1296 1295 1292 1291 1292 1291 1290 1288 1287 1286 1285 1285 1284
1378 1379 1378 1378 1378 1377 1376 1375 1374 1373 1372 1372 1372 1372 1372 1373 1373 1373 1373 1372 1372 1371 1370 1369 1368 1366 1365 1363 1362 1360 1358 1356 1354 1352 1349 1348 1344 1341 1340 1338 1334 1329 1320 1311 1309 1309 1305 1303 1302 1298 1295 1294 1291 1289 1289 1288 1287 1286 1284 1282 1281 1281 1281
1375 1375 1375 1375 1374 1374 1373 1372 1371 1370 1370 1369 1369 1369 1369 1369 1370 1370 1370 1369 1368 1367 1367 1366 1365 1363 1362 1361 1359 1357 1355 1353 1351 1349 1346 1344 1342 1338 1336 1334 1331 1327 1321 1312 1306 1305 1304 1301 1300 1297 1294 1293 1290 1288 1286 1284 1283 1283 1281 1279 1278 1277 1277
1371 1372 1372 1372 1371 1371 1370 1369 1368 1368 1367 1367 1366 1366 1366 1366 1366 1366 1366 1365 1365 1364 1364 1363 1362 1360 1359 1358 1356 1353 1352 1350 1347 1346 1343 1340 1338 1335 1331 1329 1327 1324 1319 1313 1305 1302 1301 1299 1297 1294 1293 1291 1288 1286 1284 1282 1280 1280 1279 1277 1276 1274 1273
1367 1369 1369 1369 1368 1368 1367 1366 1365 1365 1364 1363 1363 1363 1363 1363 1363 1363 1362 1362 1361 1361 1361 1360 1358 1357 1356 1355 1353 1351 1349 1347 1345 1342 1340 1337 1333 1331 1328 1325 1323 1320 1317 1312 1305 1299 1297 1297 1294 1291 1290 1289 1287 1283 1282 1280 1278 1277 1276 1275 1273 1272 1271
1363 1365 1365 1365 1365 1365 1364 1363 1362 1362 1361 1361 1360 1360 1360 1360 1359 1359 1359 1359 1358 1358 1358 1357 1356 1354 1354 1352 1350 1348 1345 1343 1341 1339 1336 1333 1330 1327 1325 1322 1319 1317 1314 1310 1305 1299 1295 1293 1292 1289 1286 1286 1286 1282 1279 1277 1275 1274 1274 1272 1271 1269 1268
1359 1360 1361 1362 1362 1362 1361 1360 1360 1359 1358 1358 1358 1357 1357 1356 1356 1356 1356 1355 1355 1355 1354 1354 1353 1352 1350 1349 1347 1345 1343 1340 1338 1335 1333 1330 1327 1324 1322 1319 1316 1314 1311 1307 1302 1298 1293 1291 1289 1287 1283 1282 1282 1280 1277 1275 1273 1270 1270 1270 1268 1266 1266
1354 1355 1357 1358 1358 1358 1358 1358 1357 1356 1356 1356 1355 1355 1354 1354 1353 1353 1353 1352 1351 1351 1351 1350 1350 1349 1347 1346 1344 1342 1339 1337 1335 1332 1330 1328 1325 1322 1320 1317 1313 1310 1307 1304 1299 1295 1291 1288 1285 1283 1281 1279 1278 1276 1274 1273 1271 1268 1267 1267 1266 1264 1264
1350 1351 1352 1353 1354 1355 1355 1355 1354 1354 1354 1353 1353 1352 1352 1351 1351 1350 1350 1349 1349 1348 1348 1348 1346 1345 1344 1343 1341 1339 1337 1335 1334 1331 1328 1325 1323 1320 1317 1314 1311 1308 1304 1301 1296 1291 1288 1285 1282 1280 1278 1276 1275 1274 1271 1271 1270 1267 1265 1265 1263 1262 1262
1346 1346 1347 1348 1350 1351 1351 1352 1352 1351 1351 1351 1350 1350 1349 1349 1348 1348 1347 1347 1346 1345 1345 1344 1343 1342 1341 1340 1338 1337 1335 1333 1332 1329 1326 1324 1321 1318 1315 1311 1308 1305 1301 1298 1293 1288 1285 1281 1278 1277 1276 1273 1272 1271 1269 1268 1267 1264 1263 1263 1261 1259 1259
1342 1343 1344 1345 1346 1347 1347 1348 1349 1349 1348 1348 1348 1347 1347 1346 1346 1345 1344 1344 1344 1343 1342 1341 1340 1340 1338 1337 1336 1334 1333 1331 1328 1326 1324 1322 1320 1317 1314 1310 1306 1301 1297 1294 1289 1285 1282 1279 1275 1273 1273 1271 1269 1268 1267 1266 1264 1263 1261 1260 1258 1256 1256
1340 1340 1340 1342 1343 1344 1344 1344 1345 1346 1346 1345 1345 1345 1344 1344 1343 1342 1342 1342 1341 1340 1339 1338 1338 1337 1336 1335 1333 1331 1330 1328 1325 1323 1321 1320 1317 1314 1311 1308 1304 1298 1294 1290 1286 1281 1279 1277 1273 1270 1269 1268 1266 1265 1264 1263 1262 1260 1259 1258 1257 1256 1254
1337 1337 1337 1338 1340 1341 1341 1342 1342 1343 1343 1343 1343 1342 1342 1341 1340 1340 1339 1339 1338 1338 1337 1336 1335 1334 1333 1332 1330 1328 1327 1325 1322 1320 1318 1316 1314 1310 1308 1305 1301 1297 1292 1288 1284 1279 1275 1273 1271 1267 1265 1264 1264 1262 1261 1260 1259 1258 1257 1256 1255 1255 1253
1334 1334 1334 1335 1336 1337 1338 1339 1340 1340 1340 1340 1340 1340 1339 1338 1337 1337 1336 1336 1335 1335 1334 1334 1332 1331 1330 1329 1327 1325 1324 1322 1319 1316 1314 1312 1310 1307 1305 1301 1297 1294 1289 1284 1281 1276 1271 1269 1268 1264 1261 1261 1260 1259 1257 1256 1255 1255 1254 1253 1253 1252 1251
1332 1332 1332 1332 1332 1333 1335 1336 1337 1337 1337 1337 1337 1337 1336 1335 1335 1334 1334 1333 1333 1332 1332 1331 1330 1329 1327 1326 1325 1323 1321 1319 1316 1313 1311 1309 1307 1304 1301 1298 1294 1289 1285 1280 1278 1274 1269 1266 1264 1261 1259 1258 1257 1255 1254 1253 1253 1252 1251 1250 1249 1248 1248
1328 1329 1329 1329 1329 1330 1331 1332 1333 1334 1334 1334 1334 1334 1333 1332 1332 1332 1331 1331 1330 1330 1329 1329 1328 1326 1325 1324 1322 1321 1319 1317 1314 1311 1309 1306 1303 1300 1298 1295 1291 1287 1282 1279 1275 1272 1268 1265 1262 1259 1257 1255 1254 1253 1251 1251 1250 1249 1249 1247 1246 1245 1244
1325 1325 1326 1326 1327 1327 1328 1329 1330 1331 1331 1331 1331 1331 1330 1329 1329 1329 1328 1328 1328 1327 1327 1326 1325 1324 1323 1321 1320 1319 1317 1315 1312 1309 1307 1304 1300 1297 1294 1292 1289 1285 1282 1277 1273 1269 1266 1262 1258 1255 1251 1249 1247 1247 1247 1247 1245 1245 1245 1244 1243 1242 1242
1322 1322 1323 1324 1325 1325 1326 1327 1327 1328 1328 1328 1328 1328 1327 1326 1326 1326 1325 1325 1325 1325 1324 1324 1323 1322 1321 1319 1318 1316 1314 1312 1310 1307 1304 1301 1297 1294 1291 1288 1285 1282 1279 1276 1271 1267 1263 1258 1254 1249 1245 1242 1240 1240 1242 1241 1240 1241 1242 1241 1240 1240 1240
1318 1319 1320 1321 1322 1323 1324 1324 1325 1325 1325 1325 1325 1325 1324 1324 1323 1323 1323 1323 1322 1322 1322 1321 1320 1320 1319 1317 1316 1314 1312 1310 1308 1305 1302 1299 1295 1291 1289 1286 1282 1279 1275 1272 1269 1264 1259 1254 1250 1246 1241 1238 1236 1235 1235 1235 1235 1237 1238 1237 1237 1237 1238
1315 1316 1317 1318 1319 1320 1321 1322 1322 1322 1322 1322 1322 1322 1321 1321 1320 1320 1320 1320 1320 1319 1319 1318 1318 1317 1317 1315 1314 1312 1310 1308 1306 1303 1300 1297 1294 1290 1286 1283 1281 1278 1274 1270 1266 1262 1257 1252 1248 1243 1239 1235 1232 1231 1231 1231 1231 1232 1234 1234 1234 1234 1236
1311 1312 1313 1314 1316 1317 1318 1318 1319 1319 1319 1319 1320 1319 1318 1318 1317 1317 1317 1317 1317 1317 1316 1316 1316 1315 1315 1313 1312 1310 1308 1306 1304 1301 1298 1295 1292 1289 1286 1283 1280 1277 1274 1270 1265 1261 1256 1252 1247 1242 1237 1234 1230 1228 1227 1227 1227 1228 1229 1230 1231 1232 1233
1306 1308 1309 1310 1312 1313 1314 1315 1315 1316 1316 1317 1316 1316 1316 1315 1314 1314 1314 1314 1315 1315 1314 1314 1313 1313 1313 1312 1310 1308 1306 1304 1302 1299 1297 1294 1292 1289 1286 1283 1280 1276 1273 1269 1265 1261 1256 1251 1246 1241 1237 1233 1229 1226 1225 1224 1224 1224 1225 1226 1227 1228 1229
1302 1303 1304 1306 1308 1309 1310 1311 1312 1313 1313 1314 1313 1313 1313 1312 1312 1312 1311 1311 1312 1312 1312 1312 1311 1311 1311 1310 1308 1306 1304 1302 1299 1297 1295 1293 1291 1288 1285 1282 1279 1276 1272 1269 1265 1260 1256 1251 1246 1241 1237 1232 1228 1225 1223 1222 1221 1221 1222 1223 1224 1225 1226
1299 1299 1300 1301 1303 1305 1306 1307 1308 1309 1310 1310 1310 1310 1310 1310 1310 1310 1309 1309 1310 1310 1310 1310 1309 1309 1309 1308 1306 1304 1302 1300 1298 1296 1294 1291 1289 1287 1284 1281 1278 1275 1272 1268 1265 1260 1256 1252 1247 1243 1238 1233 1229 1225 1223 1221 1220 1220 1220 1221 1222 1224 1225
1296 1296 1297 1298 1298 1300 1302 1303 1304 1305 1306 1307 1307 1308 1308 1308 1308 1308 1307 1308 1308 1309 1308 1308 1308 1307 1307 1306 1304 1302 1301 1299 1297 1295 1292 1290 1288 1285 1283 1280 1278 1275 1271 1268 1265 1261 1257 1254 1249 1245 1241 1236 1232 1227 1224 1222 1221 1220 1220 1220 1221 1223 1223
1292 1293 1294 1294 1295 1296 1298 1299 1301 1302 1302 1303 1304 1305 1306 1306 1306 1306 1306 1306 1307 1307 1307 1306 1306 1305 1305 1304 1302 1301 1300 1298 1296 1294 1292 1289 1287 1285 1282 1280 1277 1274 1271 1268 1265 1262 1259 1255 1252 1248 1244 1240 1235 1230 1227 1224 1222 1221 1220 1221 1222 1222 1223
1287 1288 1289 1290 1291 1293 1294 1296 1297 1298 1299 1300 1301 1302 1303 1304 1304 1304 1305 1305 1305 1305 1305 1305 1304 1304 1304 1303 1301 1300 1299 1297 1295 1293 1291 1289 1286 1284 1282 1279 1277 1274 1272 1269 1266 1264 1261 1258 1254 1250 1246 1242 1238 1233 1230 1227 1225 1223 1222 1222 1222 1223 1223
1281 1282 1284 1285 1287 1289 1291 1291 1292 1294 1296 1297 1298 1300 1301 1301 1302 1303 1303 1303 1304 1304 1304 1303 1303 1302 1302 1301 1300 1299 1299 1297 1295 1293 1291 1288 1286 1284 1282 1280 1278 1276 1273 1270 1268 1265 1262 1259 1256 1252 1248 1244 1241 1237 1233 1231 1228 1226 1225 1224 1224 1223 1223
1276 1277 1279 1281 1283 1285 1286 1288 1289 1291 1293 1295 1296 1297 1298 1299 1300 1301 1301 1302 1302 1302 1302 1302 1301 1301 1301 1300 1300 1300 1299 1297 1295 1293 1290 1288 1286 1284 1282 1280 1278 1276 1273 1271 1268 1266 1263 1260 1257 1254 1250 1247 1243 1240 1237 1234 1232 1229 1227 1226 1225 1223 1223
1272 1274 1276 1278 1280 1282 1284 1285 1287 1289 1291 1292 1293 1295 1296 1297 1298 1299 1299 1300 1300 1301 1301 1301 1300 1300 1300 1300 1300 1300 1298 1297 1294 1292 1290 1288 1286 1284 1282 1280 1278 1276 1273 1271 1269 1266 1264 1262 1259 1256 1252 1249 1246 1243 1241 1238 1236 1233 1230 1228 1226 1224 1223
1268 1270 1273 1275 1278 1280 1282 1283 1285 1286 1288 1289 1291 1292 1294 1295 1296 1297 1298 1298 1299 1299 1300 1300 1300 1299 1300 1300 1300 1299 1298 1296 1294 1292 1290 1288 1286 1285 1283 1281 1279 1277 1274 1272 1270 1268 1266 1263 1260 1258 1254 1252 1249 1246 1244 1242 1240 1237 1233 1231 1228 1226 1225
1264 1266 1268 1271 1274 1277 1279 1280 1282 1283 1285 1287 1289 1290 1292 1293 1294 1295 1296 1297 1298 1298 1299 1299 1299 1299 1299 1300 1299 1299 1298 1296 1294 1292 1291 1289 1287 1285 1283 1281 1280 1278 1276 1274 1271 1270 1267 1265 1262 1260 1257 1254 1252 1249 1247 1244 1242 1240 1237 1235 1232 1230 1228
1261 1263 1265 1268 1270 1273 1276 1278 1280 1281 1283 1285 1286 1288 1290 1291 1292 1293 1294 1295 1296 1297 1298 1298 1298 1298 1299 1299 1299 1299 1298 1296 1294 1293 1291 1290 1288 1287 1285 1283 1282 1280 1278 1276 1273 1272 1269 1267 1265 1262 1260 1257 1254 1252 1249 1247 1245 1243 1241 1238 1235 1234 1232
1257 1260 1263 1265 1267 1270 1273 1275 1277 1279 1281 1283 1284 1286 1288 1289 1290 1291 1293 1294 1295 1296 1297 1297 1297 1297 1298 1299 1299 1299 1298 1297 1295 1294 1293 1291 1290 1289 1287 1286 1284 1282 1280 1278 1276 1274 1272 1269 1267 1264 1262 1259 1257 1254 1252 1249 1247 1245 1243 1241 1239 1237 1235
1254 1257 1260 1263 1265 1267 1269 1272 1275 1277 1279 1281 1282 1284 1285 1287 1288 1289 1290 1292 1293 1294 1295 1296 1296 1297 1298 1299 1299 1299 1298 1297 1296 1295 1294 1293 1292 1290 1289 1288 1286 1284 1282 1280 1278 1276 1274 1272 1269 1267 1264 1262 1259 1257 1254 1252 1250 1248 1246 1244 1243 1241 1239
1251 1254 1258 1261 1263 1264 1267 1269 1272 1275 1277 1278 1280 1281 1282 1284 1286 1287 1289 1290 1292 1293 1294 1295 1295 1296 1297 1298 1298 1299 1299 1298 1296 1295 1295 1294 1293 1292 1290 1289 1288 1286 1285 1283 1281 1279 1277 1275 1272 1270 1268 1265 1262 1260 1258 1256 1254 1252 1250 1248 1246 1244 1242